SCP
0 0 -0 -0 0 -0 -0 -0 -0 -0 0 0 -0 0 0 0 0 0 -0 -0 -0 -1 -1 -1 -0 -0 -0 -0 -0 -0 -0 -0
0 0 0 -0 -0 -0 0 0 0 0 0 0 0 0 0 0 0 0 -0 -0 -1 -1 -1 -1 -0 -0 -0 -0 -0 -0 -0 -0
0 0 -0 -0 -0 -0 0 0 0 0 0 0 0 0 1 0 0 0 -0 -0 -1 -1 -1 -1 -1 -0 -0 -0 -0 -0 -0 -0
0 0 0 0 -0 0 0 0 -0 0 0 0 0 0 0 0 0 0 0 0 -0 -0 -1 -1 -1 -0 -0 -0 -0 -0 -0 -0
0 0 0 -0 -0 -0 -0 -0 -0 -0 0 0 0 0 0 0 0 0 0 0 0 -0 -0 -0 -1 -1 -1 -1 -0 -0 -0 -0
0 0 0 -0 0 -0 0 0 -0 -0 0 0 0 0 0 0 0 0 0 0 0 0 -0 -0 -0 -0 -0 -0 -0 -0 -0 -0
-0 0 0 -0 0 0 0 -0 -0 0 -0 0 0 0 0 0 0 0 0 0 0 -0 0 -0 -0 0 0 -0 -0 -0 -0 -0
0 0 -0 0 0 -0 -0 -0 -0 0 -0 0 0 0 0 0 0 0 0 0 0 -0 -0 0 0 -0 -0 -0 -0 -0 -0 -0
-0 0 0 0 0 0 0 0 -0 -0 0 0 0 0 0 0 0 -0 0 0 0 0 -0 -0 -0 -0 0 0 0 -0 -0 -0
-0 -0 0 0 0 0 0 0 0 -0 -0 0 0 0 0 0 -0 -0 0 -0 0 0 0 -0 0 0 0 0 0 0 0 0
0 0 -0 -0 -0 -0 -0 -0 -0 -1 -1 -0 -0 -0 0 -0 -0 0 0 0 -0 0 0 0 0 0 0 0 0 0 0 0
0 -0 -0 -0 -0 0 -0 -0 -1 -2 -1 -0 -0 -0 0 -0 -0 -0 -0 -0 -0 0 0 0 0 1 1 1 0 0 0 0
-0 -0 -0 -0 -0 -0 -0 -0 -0 -0 -0 -0 0 0 -0 -0 0 0 0 -0 -0 -0 -0 0 0 0 1 1 1 1 1 0
-0 -0 -0 0 -0 -0 0 0 -0 -0 0 0 1 0 -0 -0 0 0 0 0 -0 -0 -0 -0 0 0 0 1 0 1 0 0
0 0 0 0 -0 0 0 -0 -0 0 0 0 0 0 -0 0 -0 -0 -0 -0 -0 -0 -0 -0 -0 -0 0 0 0 0 0 0
0 0 -0 -0 -0 0 0 0 0 0 0 0 0 0 0 -0 -0 -0 -0 -0 -0 -0 -0 -0 -1 -0 -0 -0 -0 0 0 0
0 0 0 -0 0 0 0 0 0 0 0 0 0 0 0 -0 -0 -0 -0 -0 -0 -0 -0 -0 -0 -1 -1 -0 -0 0 0 0
0 0 0 0 0 0 0 0 0 0 0 0 0 0 0 -0 -0 -0 -0 -0 -0 -0 -0 -0 -0 -1 -1 -0 -0 0 0 0
0 0 0 0 0 0 0 0 0 0 0 0 0 0 -0 -0 -0 -0 -0 -0 -0 -0 -0 -0 -0 -0 -0 -0 -0 0 0 0
-0 0 0 0 0 0 0 0 0 0 0 0 -0 -0 -0 -0 -0 -0 -0 -0 -0 -0 -0 -0 -0 0 0 -0 -0 0 0 0
Wind_Speed_500mb
3 2 8 11 7 21 30 17 14 2 1 3 3 5 5 8 11 10 35 42 45 42 35 32 32 33 35 38 40 42 44 45
5 9 7 7 22 22 13 4 13 5 3 4 5 5 8 13 12 9 23 36 42 41 35 31 29 29 29 31 34 35 38 40
5 8 10 12 21 21 4 3 12 5 3 2 3 7 13 13 10 8 20 34 41 40 37 32 30 27 26 26 26 28 31 33
4 9 10 12 22 8 4 3 3 1 3 0 6 13 15 13 9 6 15 28 36 40 39 34 30 28 27 25 25 25 27 28
5 12 12 17 44 18 7 1 4 3 2 4 13 15 14 14 12 6 11 18 28 38 41 36 34 32 31 30 29 29 30 32
3 7 16 30 27 15 15 11 11 3 12 16 8 17 17 16 16 13 13 14 21 32 41 43 39 37 36 34 34 33 34 35
3 4 16 31 27 25 15 7 2 14 17 8 7 17 19 17 17 15 15 15 20 28 37 43 45 43 41 40 39 37 38 39
3 5 10 17 25 20 16 13 19 21 28 5 21 20 12 9 10 7 10 15 18 24 33 41 45 46 45 45 44 44 42 43
7 10 3 8 31 40 29 12 30 49 8 10 13 13 18 16 16 18 18 25 27 27 29 34 41 45 44 28 31 33 38 40
13 22 10 11 15 42 46 24 30 27 19 22 22 27 30 34 33 28 31 23 26 36 39 36 37 38 43 47 44 42 41 43
16 37 43 46 38 47 48 36 41 48 43 40 38 36 34 34 38 49 53 48 41 29 29 41 40 40 41 46 51 51 51 51
21 22 27 53 47 19 36 32 45 52 49 48 53 51 50 52 48 52 61 69 54 24 21 21 32 43 44 41 45 53 54 53
15 2 10 16 44 30 24 29 43 49 47 53 54 60 68 67 66 63 65 68 70 72 33 25 33 36 41 45 40 61 60 58
14 5 14 6 13 20 21 31 40 41 43 53 55 61 66 70 70 72 66 75 70 59 38 31 26 23 28 36 48 49 45 64
10 25 1 6 21 15 23 27 40 38 36 45 49 58 71 65 64 65 68 71 76 71 64 65 47 29 20 26 21 32 46 51
12 16 35 36 27 20 24 29 36 35 33 40 49 52 62 63 64 65 66 68 65 65 66 64 62 53 39 21 17 25 39 55
18 9 23 26 26 19 21 28 33 35 36 37 38 38 48 54 60 59 61 62 61 60 59 58 57 52 46 37 31 31 40 45
12 17 17 26 22 17 16 17 25 21 23 24 24 37 50 52 51 54 53 53 55 56 55 56 58 56 48 41 36 32 38 39
10 16 19 17 17 11 12 17 12 6 17 19 18 23 28 39 45 46 51 52 55 55 56 56 57 55 55 47 43 45 51 46
28 16 7 5 8 7 10 16 13 10 15 12 11 18 21 27 36 37 44 42 44 46 47 46 44 43 48 54 55 61 58 55
Wind_Direction_500mb
30 207 331 319 258 316 302 298 263 187 332 341 4 350 30 99 147 174 184 189 189 186 182 177 175 176 182 185 186 187 189 192
274 306 286 257 332 333 309 348 200 164 335 309 250 58 76 119 132 138 191 194 192 189 186 186 182 179 179 184 187 189 192 194
308 298 271 274 303 327 281 190 191 186 356 264 249 113 99 117 112 158 187 193 192 192 192 195 194 190 189 189 191 194 196 198
318 301 291 301 340 307 203 170 133 90 223 266 139 101 122 138 133 186 202 191 196 196 198 202 204 203 201 205 206 206 209 210
294 313 351 358 346 7 338 32 13 304 60 31 80 132 139 152 140 169 207 203 202 202 204 207 213 213 216 217 219 221 221 221
218 350 11 349 9 24 38 358 312 289 24 58 215 160 144 160 165 172 200 222 210 210 208 209 217 220 223 226 229 230 230 231
348 335 348 351 8 17 333 297 307 60 33 16 214 165 152 166 171 190 214 222 221 216 217 218 220 223 227 231 235 236 236 236
297 282 330 55 35 340 350 348 63 40 24 109 176 170 154 171 183 202 245 248 241 231 230 227 226 229 233 239 243 246 248 249
2 325 339 92 59 34 5 22 332 305 298 148 146 125 47 31 11 347 318 304 290 267 251 247 243 241 242 258 266 271 269 266
350 9 88 76 82 51 44 28 27 64 104 88 60 46 38 39 35 27 10 344 317 297 277 267 259 258 257 254 258 265 262 264
63 91 91 83 68 63 47 58 70 78 75 71 61 45 36 29 20 11 3 348 325 302 286 280 280 274 265 268 271 277 280 281
91 116 95 71 53 67 43 69 71 72 68 63 61 57 48 42 39 34 28 30 21 323 262 278 272 269 265 273 281 277 277 276
34 335 157 336 41 43 47 77 76 73 72 68 61 59 56 50 44 37 34 27 28 23 3 323 304 283 264 257 262 273 276 279
35 355 24 129 77 34 50 83 77 73 70 71 64 66 64 58 56 51 42 39 44 34 16 17 359 339 323 297 257 255 274 285
104 16 220 112 125 51 42 70 70 71 75 78 76 72 71 65 66 61 56 52 58 59 50 47 44 39 17 360 312 280 271 286
85 47 97 99 104 92 73 70 70 69 64 68 77 72 78 77 72 68 63 60 58 56 52 49 47 43 38 14 326 293 285 275
118 138 69 94 99 83 82 80 71 60 58 56 54 72 79 78 78 69 62 57 52 45 39 36 36 33 28 17 0 337 332 331
99 95 106 121 102 86 83 88 87 88 87 83 76 80 86 84 77 70 61 55 46 40 33 29 24 17 15 8 356 333 320 321
150 118 94 128 117 123 73 104 117 170 88 79 79 80 78 77 73 64 56 47 38 32 25 21 16 5 359 358 353 346 338 322
145 170 157 282 159 128 111 126 97 100 123 103 107 88 77 69 61 58 56 51 43 35 27 24 22 19 10 360 348 344 340 334
Wind_Speed_850mb
3 2 8 11 7 21 30 17 14 2 1 3 3 5 5 8 11 10 35 42 45 42 35 32 32 33 35 38 40 42 44 45
5 9 7 7 22 22 13 4 13 5 3 4 5 5 8 13 12 9 23 36 42 41 35 31 29 29 29 31 34 35 38 40
5 8 10 12 21 21 4 3 12 5 3 2 3 7 13 13 10 8 20 34 41 40 37 32 30 27 26 26 26 28 31 33
4 9 10 12 22 8 4 3 3 1 3 0 6 13 15 13 9 6 15 28 36 40 39 34 30 28 27 25 25 25 27 28
5 12 12 17 44 18 7 1 4 3 2 4 13 15 14 14 12 6 11 18 28 38 41 36 34 32 31 30 29 29 30 32
3 7 16 30 27 15 15 11 11 3 12 16 8 17 17 16 16 13 13 14 21 32 41 43 39 37 36 34 34 33 34 35
3 4 16 31 27 25 15 7 2 14 17 8 7 17 19 17 17 15 15 15 20 28 37 43 45 43 41 40 39 37 38 39
3 5 10 17 25 20 16 13 19 21 28 5 21 20 12 9 10 7 10 15 18 24 33 41 45 46 45 45 44 44 42 43
7 10 3 8 31 40 29 12 30 49 8 10 13 13 18 16 16 18 18 25 27 27 29 34 41 45 44 28 31 33 38 40
13 22 10 11 15 42 46 24 30 27 19 22 22 27 30 34 33 28 31 23 26 36 39 36 37 38 43 47 44 42 41 43
16 37 43 46 38 47 48 36 41 48 43 40 38 36 34 34 38 49 53 48 41 29 29 41 40 40 41 46 51 51 51 51
21 22 27 53 47 19 36 32 45 52 49 48 53 51 50 52 48 52 61 69 54 24 21 21 32 43 44 41 45 53 54 53
15 2 10 16 44 30 24 29 43 49 47 53 54 60 68 67 66 63 65 68 70 72 33 25 33 36 41 45 40 61 60 58
14 5 14 6 13 20 21 31 40 41 43 53 55 61 66 70 70 72 66 75 70 59 38 31 26 23 28 36 48 49 45 64
10 25 1 6 21 15 23 27 40 38 36 45 49 58 71 65 64 65 68 71 76 71 64 65 47 29 20 26 21 32 46 51
12 16 35 36 27 20 24 29 36 35 33 40 49 52 62 63 64 65 66 68 65 65 66 64 62 53 39 21 17 25 39 55
18 9 23 26 26 19 21 28 33 35 36 37 38 38 48 54 60 59 61 62 61 60 59 58 57 52 46 37 31 31 40 45
12 17 17 26 22 17 16 17 25 21 23 24 24 37 50 52 51 54 53 53 55 56 55 56 58 56 48 41 36 32 38 39
10 16 19 17 17 11 12 17 12 6 17 19 18 23 28 39 45 46 51 52 55 55 56 56 57 55 55 47 43 45 51 46
28 16 7 5 8 7 10 16 13 10 15 12 11 18 21 27 36 37 44 42 44 46 47 46 44 43 48 54 55 61 58 55
Wind_Direction_850mb
30 207 331 319 258 316 302 298 263 187 332 341 4 350 30 99 147 174 184 189 189 186 182 177 175 176 182 185 186 187 189 192
274 306 286 257 332 333 309 348 200 164 335 309 250 58 76 119 132 138 191 194 192 189 186 186 182 179 179 184 187 189 192 194
308 298 271 274 303 327 281 190 191 186 356 264 249 113 99 117 112 158 187 193 192 192 192 195 194 190 189 189 191 194 196 198
318 301 291 301 340 307 203 170 133 90 223 266 139 101 122 138 133 186 202 191 196 196 198 202 204 203 201 205 206 206 209 210
294 313 351 358 346 7 338 32 13 304 60 31 80 132 139 152 140 169 207 203 202 202 204 207 213 213 216 217 219 221 221 221
218 350 11 349 9 24 38 358 312 289 24 58 215 160 144 160 165 172 200 222 210 210 208 209 217 220 223 226 229 230 230 231
348 335 348 351 8 17 333 297 307 60 33 16 214 165 152 166 171 190 214 222 221 216 217 218 220 223 227 231 235 236 236 236
297 282 330 55 35 340 350 348 63 40 24 109 176 170 154 171 183 202 245 248 241 231 230 227 226 229 233 239 243 246 248 249
2 325 339 92 59 34 5 22 332 305 298 148 146 125 47 31 11 347 318 304 290 267 251 247 243 241 242 258 266 271 269 266
350 9 88 76 82 51 44 28 27 64 104 88 60 46 38 39 35 27 10 344 317 297 277 267 259 258 257 254 258 265 262 264
63 91 91 83 68 63 47 58 70 78 75 71 61 45 36 29 20 11 3 348 325 302 286 280 280 274 265 268 271 277 280 281
91 116 95 71 53 67 43 69 71 72 68 63 61 57 48 42 39 34 28 30 21 323 262 278 272 269 265 273 281 277 277 276
34 335 157 336 41 43 47 77 76 73 72 68 61 59 56 50 44 37 34 27 28 23 3 323 304 283 264 257 262 273 276 279
35 355 24 129 77 34 50 83 77 73 70 71 64 66 64 58 56 51 42 39 44 34 16 17 359 339 323 297 257 255 274 285
104 16 220 112 125 51 42 70 70 71 75 78 76 72 71 65 66 61 56 52 58 59 50 47 44 39 17 360 312 280 271 286
85 47 97 99 104 92 73 70 70 69 64 68 77 72 78 77 72 68 63 60 58 56 52 49 47 43 38 14 326 293 285 275
118 138 69 94 99 83 82 80 71 60 58 56 54 72 79 78 78 69 62 57 52 45 39 36 36 33 28 17 0 337 332 331
99 95 106 121 102 86 83 88 87 88 87 83 76 80 86 84 77 70 61 55 46 40 33 29 24 17 15 8 356 333 320 321
150 118 94 128 117 123 73 104 117 170 88 79 79 80 78 77 73 64 56 47 38 32 25 21 16 5 359 358 353 346 338 322
145 170 157 282 159 128 111 126 97 100 123 103 107 88 77 69 61 58 56 51 43 35 27 24 22 19 10 360 348 344 340 334